Theta_e
311 311 311 312 312 312 313 313 313 313 313 314 314 314 315 314 313 315 321 323 320 317 318 318 319 318 318 318 315 319 317 318 318 316 316 316 315 316 315 317 315 314 312 310 312 309 306 318 317 312 318 321 320 320
311 311 311 311 311 312 312 312 312 312 313 313 314 314 314 314 313 312 321 323 322 317 316 318 319 321 319 319 319 319 318 318 322 318 320 319 315 318 316 309 321 312 317 314 316 314 318 319 318 320 322 321 322 323
310 311 311 311 311 312 312 312 312 312 313 313 314 313 313 313 312 312 320 320 322 318 317 317 315 320 321 320 322 315 321 320 322 321 321 318 314 318 309 310 315 319 319 316 316 319 317 319 320 322 325 324 326 327
310 310 310 311 311 311 312 312 312 312 312 313 313 313 313 312 312 311 320 320 320 317 311 315 317 319 322 322 322 319 319 321 322 322 317 314 310 316 310 313 313 314 316 313 314 316 319 316 324 325 325 327 327 328
310 310 310 311 311 311 311 311 311 312 312 312 312 313 312 311 311 316 324 322 321 315 310 313 315 321 324 323 320 321 319 320 319 316 314 312 317 313 315 312 309 318 313 310 309 320 320 323 326 327 327 327 329 328
310 310 310 310 311 311 311 311 311 311 312 312 312 311 311 311 309 323 320 324 321 320 312 308 316 321 320 320 319 318 318 321 321 319 318 321 317 315 310 309 315 317 320 321 319 325 325 326 327 328 329 329 329 329
309 309 309 310 310 311 311 310 310 311 311 311 310 310 311 310 320 318 316 316 313 322 315 309 313 321 321 321 322 320 320 324 321 321 317 317 318 314 313 309 318 321 324 324 326 327 324 325 325 329 329 329 327 329
309 309 309 309 310 310 310 310 310 310 310 310 310 309 310 310 311 317 321 315 316 318 319 311 314 316 322 319 317 326 320 321 321 319 320 316 318 317 310 318 323 324 325 325 327 328 327 328 329 328 329 328 326 325
309 309 309 309 310 310 310 310 310 310 309 309 309 310 319 319 322 320 315 316 325 319 314 315 312 311 323 320 323 320 323 314 321 315 317 316 314 310 318 319 322 322 322 322 324 325 325 325 325 326 326 327 325 324
309 309 309 309 309 309 310 310 310 308 308 309 316 317 317 319 313 316 320 322 322 319 313 311 318 313 318 319 317 317 318 314 310 315 320 314 313 321 321 322 325 322 322 322 320 319 321 321 322 323 323 324 325 326
309 309 309 309 309 309 310 310 309 308 310 313 309 312 314 316 318 317 315 316 318 314 318 318 317 315 322 314 314 318 315 316 306 311 311 313 312 318 320 319 322 322 323 322 322 321 322 323 323 324 325 326 326 326
310 309 309 309 308 309 309 309 309 310 309 308 305 307 311 317 315 311 311 315 314 313 317 315 315 319 319 324 316 317 311 313 304 317 311 309 313 319 320 320 322 323 322 322 323 322 321 321 323 325 326 326 327 329
309 309 309 308 308 309 309 309 309 308 309 312 307 309 312 312 299 302 302 308 310 316 318 316 314 319 318 319 317 314 306 306 317 309 310 309 315 320 321 321 321 322 322 321 320 320 321 322 323 324 326 327 329 329
309 309 308 308 308 309 309 309 308 310 312 308 304 294 304 303 307 311 313 313 315 319 316 318 315 317 317 313 315 305 311 311 304 303 304 311 316 317 319 319 318 318 319 319 319 320 320 321 323 325 326 328 328 327
308 308 308 308 308 309 308 308 308 313 311 305 305 294 304 311 312 315 315 315 316 319 317 314 315 314 313 308 311 309 304 301 306 307 313 315 318 319 319 320 320 320 321 321 321 321 321 321 323 324 327 328 327 327
308 307 308 307 307 308 307 309 314 316 311 306 304 302 309 308 310 312 314 314 318 318 318 316 311 307 306 310 304 302 302 301 308 315 315 317 318 321 322 323 323 324 324 323 324 324 324 323 323 325 327 327 326 327
307 305 306 306 307 307 307 311 313 306 306 303 304 307 307 309 310 313 315 316 319 314 311 313 304 303 311 305 303 312 308 312 314 314 315 320 321 322 323 324 323 321 320 321 322 324 324 325 326 326 324 325 327 324
305 309 306 307 308 309 312 313 309 306 301 306 303 308 308 310 310 313 316 318 316 315 314 309 313 305 303 300 305 313 316 315 316 317 319 322 323 322 324 322 321 321 319 320 323 323 324 324 324 325 324 325 324 324
307 308 307 308 307 304 303 307 309 302 304 307 307 308 308 309 312 312 312 317 319 318 315 312 306 305 306 311 310 313 315 315 316 318 319 323 324 324 323 321 320 322 321 322 322 320 322 325 326 326 324 322 320 317
307 308 308 308 307 302 298 304 311 304 302 306 307 305 307 307 312 312 313 315 315 314 310 307 307 312 312 315 317 316 319 320 317 316 317 320 324 324 324 323 320 321 320 321 324 314 320 320 322 320 316 314 312 310
305 307 308 308 305 303 301 303 304 307 306 305 310 307 306 309 306 306 308 313 311 310 308 311 312 317 319 322 322 321 321 323 318 317 319 316 321 322 322 322 323 325 320 319 320 317 314 312 312 312 311 310 311 313
305 307 306 307 302 303 301 307 304 306 305 306 305 306 304 304 306 307 310 308 308 310 312 313 317 320 317 319 322 324 323 321 320 317 311 314 320 322 321 320 318 321 322 322 319 318 317 317 314 314 313 313 311 311
305 304 303 304 300 297 298 309 301 304 299 302 306 302 304 306 310 313 306 307 309 314 317 319 320 320 320 323 323 323 323 318 317 319 323 322 323 323 321 319 319 317 317 318 318 316 314 306 311 314 314 312 311 311
304 301 299 298 299 295 304 300 304 302 301 300 300 299 302 307 313 310 306 311 312 317 318 318 317 317 319 318 319 322 322 323 323 323 321 321 319 318 320 318 318 318 317 315 315 315 314 314 307 313 312 312 311 309
293 294 296 291 300 298 296 297 297 297 294 297 298 300 304 311 306 306 306 311 316 319 320 317 316 318 318 320 316 317 323 317 314 320 322 320 318 319 317 318 317 318 318 315 314 313 313 314 313 312 310 308 308 307
288 295 293 295 295 296 297 294 295 296 297 297 300 303 310 307 302 301 310 315 317 318 317 316 315 317 314 316 319 317 320 321 322 322 324 321 318 317 316 315 313 313 319 318 315 313 312 312 311 310 309 307 299 306
290 293 298 305 300 301 299 302 302 298 295 296 299 303 305 299 300 304 312 316 314 317 321 321 322 322 322 320 322 320 316 319 320 320 327 325 317 318 318 316 313 315 319 317 315 313 312 311 310 310 309 309 308 307
296 297 294 298 299 301 294 295 297 297 298 304 302 299 298 296 300 309 313 320 320 322 324 326 325 323 320 318 314 310 312 317 320 324 329 322 320 319 317 323 322 300 315 314 314 313 313 313 311 310 309 308 307 308
296 300 299 295 296 297 297 296 298 301 304 302 302 302 302 307 311 312 318 319 321 322 321 320 319 321 319 315 313 312 313 313 315 314 313 312 309 312 318 325 319 314 314 315 294 302 310 310 310 310 309 308 308 308
297 302 297 297 296 294 300 303 303 305 305 308 311 311 310 310 312 316 317 317 319 318 318 318 318 319 313 308 310 308 308 312 306 309 307 304 304 309 314 316 313 313 314 314 314 313 298 307 304 310 307 307 307 306
302 301 298 298 297 301 303 305 307 307 306 306 310 305 304 307 312 316 316 317 316 317 316 310 310 312 311 311 310 309 307 311 311 311 311 311 311 310 311 312 312 313 313 312 310 309 308 307 307 307 307 306 305 303
300 298 297 294 297 302 304 302 302 302 305 305 305 308 306 306 305 315 319 322 318 313 308 311 309 311 312 310 307 306 299 310 311 311 311 311 311 312 312 312 312 311 310 309 308 308 307 307 306 305 305 304 304 304
299 299 299 299 299 298 303 301 300 300 302 301 303 305 305 304 303 316 322 325 322 320 316 313 311 312 312 311 309 309 305 308 298 290 291 291 290 297 308 309 309 308 307 307 306 306 305 305 304 304 304 304 304 303
Wind_Speed
13 15 16 17 18 19 20 20 21 22 22 22 22 21 19 16 15 8 3 5 5 3 2 3 2 4 3 5 7 5 4 6 5 7 9 10 8 12 7 14 13 13 13 11 11 9 15 7 5 6 8 10 13 13
13 14 15 17 18 18 19 20 21 21 21 21 22 21 18 15 14 10 1 3 3 5 6 3 7 7 5 7 6 3 5 2 4 4 3 5 7 4 8 12 5 9 7 8 8 6 4 5 7 6 8 9 11 14
12 14 15 16 17 18 20 21 21 22 22 21 21 21 18 14 11 8 4 4 4 4 5 5 5 3 5 8 7 5 2 2 2 4 2 3 6 3 9 8 6 2 2 6 4 7 4 9 5 6 10 10 10 10
12 14 15 16 17 18 20 21 22 22 22 22 21 20 17 12 9 7 3 4 4 3 5 6 2 2 1 5 6 10 4 3 3 3 3 4 5 2 4 5 6 6 3 3 8 11 9 4 12 10 12 9 9 9
12 13 14 15 17 18 20 21 22 23 23 23 22 19 15 10 6 5 1 3 4 6 5 2 4 3 2 3 7 11 8 5 3 4 4 4 2 4 3 5 9 2 5 7 5 7 6 10 9 10 10 9 10 11
11 13 14 15 17 18 20 21 23 23 24 25 23 19 13 6 6 4 5 3 5 4 5 3 4 2 3 5 7 11 6 2 3 3 2 2 2 4 4 4 4 2 4 6 6 8 10 10 10 6 10 11 11 12
11 13 14 15 16 18 20 22 23 24 24 24 22 16 8 5 5 3 6 5 6 4 4 4 5 4 2 5 4 5 6 2 4 2 4 4 4 4 5 9 7 0 4 3 4 8 6 2 8 10 10 12 11 13
11 12 13 15 16 18 19 22 23 25 25 24 17 11 0 1 5 4 4 3 7 5 4 3 3 5 1 4 5 1 4 4 4 3 2 5 3 4 5 6 2 3 3 5 5 7 9 9 9 10 11 12 14 14
11 12 13 14 15 17 19 21 23 26 27 22 13 4 5 4 3 4 12 11 3 5 3 3 3 4 1 3 1 4 2 5 3 5 3 3 4 6 7 2 2 4 4 6 8 10 10 11 13 14 15 15 14 14
10 11 12 13 14 16 18 20 22 27 26 17 6 5 4 3 9 9 5 5 5 4 4 3 0 3 4 2 3 2 1 3 4 4 1 5 4 7 2 4 3 5 6 8 10 10 11 12 12 15 16 15 15 15
10 11 12 13 14 15 17 18 20 26 9 5 5 3 6 7 4 4 3 4 3 4 3 2 2 3 2 3 2 1 1 0 4 6 4 3 3 7 3 2 4 6 7 8 8 11 12 14 14 15 15 15 15 16
10 10 11 12 14 15 16 16 16 10 7 8 5 5 5 5 3 5 3 3 5 2 4 4 4 3 4 1 3 3 2 3 3 2 4 3 6 5 1 4 6 7 8 10 10 12 14 14 14 14 14 14 15 16
10 9 11 12 13 14 16 13 14 12 11 3 4 4 1 3 1 5 7 4 4 5 4 5 5 0 4 3 1 3 4 3 1 4 1 4 5 2 5 6 7 8 8 10 12 13 15 15 15 14 14 13 14 13
9 10 11 12 13 13 10 13 14 11 5 4 3 4 5 5 4 1 1 3 5 1 4 2 3 1 1 3 1 3 2 3 4 4 3 3 5 5 7 8 10 13 14 15 15 15 16 15 14 15 13 13 13 13
8 10 13 14 6 10 13 15 14 5 4 3 3 4 5 3 3 1 1 2 3 0 3 4 2 3 2 3 2 1 3 5 2 3 3 5 5 7 10 12 13 14 15 15 16 16 17 16 15 15 14 14 13 13
9 13 3 3 9 13 16 12 4 3 3 4 4 5 2 5 4 3 3 4 2 2 2 2 2 3 3 2 3 4 2 3 4 2 4 5 7 10 11 12 12 13 14 16 16 15 15 15 14 15 15 13 12 12
4 4 4 5 11 17 7 4 3 4 4 4 3 3 4 4 3 1 1 2 2 4 4 2 4 2 1 3 3 2 2 4 3 5 5 7 9 11 11 11 12 13 13 13 14 14 13 13 12 12 13 10 9 8
4 2 1 5 10 7 2 3 3 3 5 4 4 1 3 3 3 2 1 1 3 2 3 1 1 5 3 3 3 3 2 3 4 5 6 8 8 10 10 11 12 12 12 12 13 12 13 12 10 9 8 6 6 5
3 3 3 4 5 4 3 2 3 4 3 2 3 3 4 4 3 4 4 2 2 2 2 3 3 3 3 1 3 2 3 4 6 7 7 7 7 7 9 9 11 10 10 11 11 8 10 13 7 6 5 4 3 5
8 10 10 7 5 2 3 3 2 4 4 3 3 4 3 4 1 4 4 4 4 4 5 4 4 1 2 2 2 4 5 5 4 7 6 5 5 9 9 9 6 8 7 9 8 8 7 7 7 8 8 8 7 6
2 1 2 5 3 3 3 3 4 2 3 3 1 3 3 3 6 6 7 5 6 5 6 5 3 1 3 1 2 4 3 2 4 5 7 7 8 6 5 5 7 6 5 5 9 7 8 7 6 8 6 5 4 3
1 2 1 3 3 3 3 3 4 3 4 3 3 3 4 4 5 5 5 7 8 6 5 4 2 2 2 6 3 3 4 4 5 3 5 5 4 5 5 5 6 6 7 7 6 7 8 7 6 4 4 3 2 8
2 2 2 4 4 3 3 2 4 4 4 2 3 4 4 4 3 4 5 7 8 5 3 2 4 3 4 1 1 1 2 0 2 3 1 2 1 4 3 5 6 7 6 5 5 6 7 4 5 5 4 4 6 6
2 2 2 2 5 3 3 4 3 3 2 3 3 4 3 3 5 4 4 4 5 6 6 6 3 4 3 2 1 2 0 3 2 2 2 4 3 3 3 4 4 5 6 6 6 5 4 4 1 6 7 7 7 7
2 2 2 3 2 4 5 4 4 3 4 4 4 5 3 3 4 5 4 5 6 5 6 5 4 4 3 2 3 3 3 1 2 3 3 2 1 2 5 2 4 5 5 5 5 5 5 5 7 8 9 10 11 10
4 5 4 5 3 5 3 3 4 5 3 3 4 2 2 3 4 1 2 3 2 3 3 4 4 3 2 2 1 2 3 5 6 3 2 4 2 3 3 5 2 4 3 4 5 6 6 6 6 7 7 7 5 10
3 4 4 3 1 4 4 3 3 1 2 2 2 5 3 1 1 2 1 2 3 2 2 2 2 1 1 1 2 4 6 7 5 5 1 5 3 0 3 4 5 5 3 5 6 6 5 6 5 6 7 7 7 9
3 2 3 1 3 2 1 4 4 1 2 1 1 2 2 2 2 1 2 2 3 3 3 3 3 3 3 4 2 3 4 6 4 1 4 4 2 1 5 2 3 3 5 9 9 6 7 7 5 6 7 7 7 7
4 3 3 3 3 2 3 4 3 1 1 3 3 2 3 1 2 3 2 3 1 3 2 3 4 1 3 4 4 3 5 5 6 3 3 3 3 3 4 2 3 6 6 6 10 10 9 8 8 7 6 6 6 5
4 4 3 4 5 3 3 4 2 4 5 4 2 2 3 2 1 2 3 4 3 3 2 4 1 2 6 3 5 7 5 7 6 5 4 3 1 4 3 5 4 2 3 3 3 5 5 4 4 3 7 6 7 10
1 4 4 3 2 2 5 5 5 7 5 2 2 6 3 3 2 1 1 2 1 1 4 4 2 6 4 6 6 7 8 7 9 9 7 6 7 5 4 3 3 4 4 5 6 7 7 5 6 7 8 10 10 9
5 6 4 4 4 3 4 5 5 4 2 3 3 3 4 2 4 4 5 4 4 3 3 2 7 8 6 7 5 3 3 8 8 9 10 8 7 7 6 5 5 5 6 6 7 8 8 9 9 9 10 11 10 10
5 5 6 4 3 4 5 4 4 3 4 4 5 5 5 4 1 3 3 2 3 4 6 8 6 5 6 6 5 6 7 9 9 9 10 11 12 12 6 6 6 7 8 8 8 8 10 11 10 10 10 9 10 11
Wind_Direction
355 355 353 352 351 348 346 345 345 344 344 346 349 352 353 355 358 328 56 11 326 300 284 294 288 252 212 246 267 89 227 189 241 251 258 266 248 266 264 269 285 264 274 272 261 277 273 26 201 329 358 328 328 321
351 350 348 347 345 343 343 342 341 341 341 342 344 346 347 350 351 332 311 19 321 262 354 317 295 298 314 357 316 190 357 2 356 268 251 296 244 238 282 270 141 256 290 305 321 12 98 19 333 344 343 319 313 317
345 346 344 343 340 339 339 338 339 338 338 339 341 341 340 342 346 337 348 352 252 271 227 244 208 128 238 242 276 284 175 10 201 349 327 336 259 309 267 260 290 170 339 261 313 133 355 318 355 359 330 324 324 332
339 340 339 338 337 337 336 335 335 335 334 336 337 336 332 330 329 318 4 2 275 300 276 114 146 159 296 219 248 247 337 187 123 249 248 268 269 159 283 337 276 10 319 360 278 266 327 282 12 340 335 329 333 331
331 333 332 333 334 335 334 334 333 332 332 334 335 332 325 314 299 270 305 34 15 312 335 74 155 69 293 238 220 206 211 195 205 201 226 239 344 259 210 287 255 66 332 272 320 27 319 306 342 339 335 341 340 336
323 328 330 330 332 332 333 332 331 330 331 332 333 331 320 288 233 223 208 140 6 335 275 219 90 78 77 130 143 176 189 206 252 260 228 203 62 255 258 266 92 112 246 290 292 332 300 292 306 315 330 326 332 318
316 322 326 328 329 330 331 330 329 328 330 331 331 332 349 166 239 298 9 26 343 291 259 226 172 113 136 155 132 154 196 196 274 247 239 279 174 237 268 275 120 17 302 275 311 310 287 330 327 322 313 316 310 318
306 314 320 324 326 328 329 329 329 326 328 328 326 323 50 130 126 189 109 12 317 269 252 259 132 176 232 178 152 195 181 195 177 292 199 247 137 243 258 79 42 20 315 201 327 313 300 308 302 308 315 319 318 318
300 307 314 318 322 326 328 330 329 326 325 322 317 252 231 230 247 62 337 298 242 295 293 253 225 133 183 130 104 163 251 239 82 251 223 246 204 231 67 123 76 31 5 337 318 314 313 322 318 318 317 314 312 316
292 300 307 314 320 324 328 330 330 326 321 304 269 235 192 62 338 279 184 208 199 179 221 270 236 151 270 195 131 231 217 270 252 99 174 238 226 52 107 65 26 348 334 336 332 335 327 322 324 318 314 310 307 306
286 294 303 311 319 323 326 330 333 324 303 357 346 329 346 313 240 224 232 238 155 209 189 98 315 128 67 262 105 319 5 173 249 112 262 168 193 110 108 78 16 357 348 335 334 329 329 323 319 319 319 318 313 310
279 286 295 306 314 318 322 326 334 336 349 330 305 288 265 243 223 240 200 167 230 133 153 191 110 16 106 301 248 166 254 204 263 83 247 221 78 93 21 347 331 314 318 315 316 319 318 317 315 311 309 315 316 308
281 287 291 299 308 312 314 315 322 311 279 206 226 245 264 170 255 223 182 171 180 161 149 170 151 60 156 230 213 237 226 227 9 225 258 59 98 46 340 322 320 314 301 302 304 307 307 306 309 306 309 303 307 307
275 281 287 294 302 305 304 311 321 317 270 271 285 310 236 185 232 178 311 49 69 195 149 165 115 313 74 215 307 241 84 251 250 233 126 129 54 354 330 317 307 311 307 302 300 301 301 303 302 305 299 300 304 304
277 282 284 291 302 309 308 311 308 258 273 267 263 240 220 15 241 297 330 228 117 296 191 158 157 258 146 222 227 294 219 235 262 24 74 65 343 326 317 312 307 304 305 303 302 300 301 300 298 300 302 306 305 306
280 287 244 340 314 312 311 298 233 243 237 245 236 253 205 243 162 176 176 130 76 156 191 232 174 210 188 266 214 217 267 235 82 35 9 329 331 319 314 314 314 313 315 309 306 300 298 294 293 300 305 301 300 312
253 258 125 319 324 303 295 270 240 226 264 237 220 224 277 300 329 44 285 61 343 239 196 193 209 137 80 229 234 203 287 52 6 334 329 340 318 316 314 312 313 315 313 310 303 298 298 294 297 297 298 309 332 341
240 244 131 350 332 306 226 237 257 254 244 239 255 107 220 271 283 238 150 4 266 195 217 80 58 217 226 230 196 118 268 316 329 317 320 333 323 312 313 316 320 313 309 303 302 309 301 293 288 295 314 348 327 8
266 325 317 320 334 310 307 211 253 270 260 293 270 256 263 271 265 290 277 254 273 277 187 199 245 245 245 193 290 286 301 316 328 336 303 291 304 313 320 316 310 319 318 314 321 313 310 301 302 306 320 329 45 24
258 270 274 275 237 252 264 213 251 265 267 45 264 245 258 276 332 248 226 216 211 206 196 216 246 301 283 70 338 316 318 329 325 302 317 343 10 336 341 339 324 321 312 304 322 356 340 339 342 34 43 48 47 27
199 267 127 175 182 243 278 279 225 269 311 264 310 267 267 216 234 220 221 204 218 223 227 224 264 93 40 10 296 285 289 284 259 286 315 317 333 341 334 325 331 32 20 6 21 22 44 43 47 52 45 41 27 357
233 272 237 194 234 195 261 246 296 340 258 297 253 232 258 235 217 202 217 209 228 227 227 256 241 136 189 240 269 261 349 309 287 301 285 272 300 335 3 6 11 29 24 40 51 52 55 51 51 51 41 18 346 52
230 211 231 223 208 199 274 212 250 218 249 231 209 235 212 213 192 150 219 220 219 204 211 198 131 172 259 288 342 282 227 163 266 265 312 283 343 324 40 53 28 33 45 63 68 63 68 68 73 61 56 39 39 31
139 256 246 209 210 238 217 218 219 248 274 251 249 244 224 208 145 217 233 180 190 155 172 147 186 202 145 156 189 0 342 360 10 102 329 11 37 353 335 52 63 66 59 56 66 83 101 91 91 51 32 25 35 28
194 235 238 261 184 245 234 208 202 219 250 239 238 234 222 176 217 227 207 144 173 158 150 163 173 190 192 147 157 205 105 168 283 279 160 140 105 357 325 81 86 38 14 58 56 49 43 38 40 51 42 26 14 34
219 186 216 200 184 243 240 220 203 223 224 254 229 265 248 223 230 324 73 97 104 123 133 151 183 166 172 252 237 204 218 208 241 284 174 158 142 273 306 322 336 104 51 32 15 22 27 20 38 26 34 52 27 10
224 203 215 210 317 317 278 300 219 222 278 256 333 293 231 234 22 98 296 132 157 133 85 132 210 166 111 151 359 13 337 306 294 300 103 141 147 170 281 298 45 33 26 22 19 29 353 4 27 14 12 27 24 4
274 296 240 143 227 170 349 312 289 176 253 337 239 260 15 35 297 84 46 85 74 115 85 80 83 77 78 84 74 282 287 309 287 211 135 142 149 247 333 254 37 16 15 26 351 10 4 19 32 24 13 6 10 23
244 197 188 222 207 213 214 227 270 327 271 257 299 42 107 238 333 340 35 342 8 94 70 97 101 118 130 95 54 15 8 355 357 84 108 71 13 27 345 222 83 37 27 80 57 41 36 32 21 9 3 9 11 8
221 189 190 237 200 216 260 195 172 282 280 302 9 90 90 45 336 307 349 1 37 70 72 48 36 149 78 94 95 58 30 41 31 15 51 63 332 305 320 67 75 94 55 34 35 121 173 231 135 38 20 9 24 347
166 206 223 243 253 221 202 224 192 235 257 279 121 98 62 350 318 187 337 291 254 283 72 74 74 81 71 59 61 86 77 62 62 56 48 77 78 66 54 41 45 49 36 31 32 33 11 19 20 6 24 14 17 10
200 208 218 225 228 216 231 240 239 243 223 239 213 153 118 182 240 199 199 181 110 96 85 55 78 72 56 77 46 77 16 67 55 47 47 50 52 46 48 47 49 37 35 37 36 35 22 20 28 19 5 13 9 11
227 217 224 257 245 222 183 210 199 222 211 234 223 213 199 243 31 110 144 132 120 130 132 99 78 58 28 27 64 79 75 79 70 51 54 48 34 8 21 48 50 48 53 51 44 42 37 31 30 24 24 22 18 17